Location: Carri�res
(48.9069°N, 2.1792°E)
Time: 13:49:53
(UTC+00:00)

SJ 16-02 - Pass Details

Date: 17 January 2021
Orbit: 607 x 615 km, 75.0° (Epoch: 26 February)

Event Time Altitude Azimuth Distance (km) Brightness Sun altitude
Rises 19:42:15 0° 215° (SW) 2,869 5.1 -31.8°
Reaches altitude 10° 19:44:33 10° 221° (SW) 1,967 4.3 -32.1°
Enters shadow 19:45:44 18° 227° (SW) 1,521 3.7 -32.3°
